Location: D�rnast
(49.6426°N, 11.9755°E)
Time: 14:01:06
(UTC+00:00)

ISS - Pass Details

Date: 29 April 2021
Orbit: 418 x 421 km, 51.6° (Epoch: 05 May)

Event Time Altitude Azimuth Distance (km) Brightness Sun altitude
Exits shadow 03:02:52 10° 218° (SW) 1,527 -1.5 -7.9°
Reaches altitude 10° 03:02:56 10° 217° (SW) 1,499 -1.6 -7.9°
Maximum altitude 03:06:04 37° 149° (SSE) 673 -2.7 -7.5°
Drops below altitude 10° 03:09:14 10° 80° (E) 1,508 0.4 -7.1°
Sets 03:11:25 0° 72° (ENE) 2,376 2.0 -6.8°
